Time,TemperatureF,DewpointF,PressureIn,WindDirection,WindDirectionDegrees,WindSpeedMPH,WindSpeedGustMPH,Humidity,HourlyPrecipIn,Conditions,Clouds,dailyrainin,SoftwareType,DateUTC
2013-03-09 00:10:00,38.8,33.0,30.04,NE,44,10.0,28.0,78,0.00,,,0.00,weatherlink.com 1.10,2013-03-09 05:10:00,
2013-03-09 00:25:00,38.6,32.0,30.04,NNW,345,19.0,25.0,78,0.00,,,0.00,weatherlink.com 1.10,2013-03-09 05:25:00,
2013-03-09 00:40:00,38.4,32.0,30.05,NNE,15,13.0,31.0,77,0.00,,,0.00,weatherlink.com 1.10,2013-03-09 05:40:00,
2013-03-09 00:56:00,38.2,33.0,30.05,NE,42,8.0,22.0,80,0.00,,,0.00,weatherlink.com 1.10,2013-03-09 05:56:00,
2013-03-09 01:11:00,37.9,32.0,30.04,NE,56,15.0,32.0,80,0.00,,,0.00,weatherlink.com 1.10,2013-03-09 06:11:00,
2013-03-09 01:26:00,37.9,32.0,30.05,NE,38,13.0,28.0,80,0.00,,,0.00,weatherlink.com 1.10,2013-03-09 06:26:00,
2013-03-09 01:41:00,37.5,32.0,30.05,North,11,17.0,24.0,80,0.00,,,0.00,weatherlink.com 1.10,2013-03-09 06:41:00,
2013-03-09 01:56:00,37.5,32.0,30.04,ENE,62,6.0,29.0,81,0.00,,,0.00,weatherlink.com 1.10,2013-03-09 06:56:00,
2013-03-09 02:11:00,37.2,32.0,30.05,NE,50,12.0,25.0,81,0.00,,,0.00,weatherlink.com 1.10,2013-03-09 07:11:00,
2013-03-09 02:26:00,36.9,32.0,30.05,NE,47,12.0,24.0,81,0.00,,,0.00,weatherlink.com 1.10,2013-03-09 07:26:00,
2013-03-09 02:41:00,36.9,32.0,30.05,NNE,19,11.0,26.0,81,0.00,,,0.00,weatherlink.com 1.10,2013-03-09 07:41:00,
2013-03-09 02:56:00,36.7,32.0,30.05,NE,56,15.0,26.0,83,0.00,,,0.00,weatherlink.com 1.10,2013-03-09 07:56:00,
2013-03-09 03:11:00,36.6,32.0,30.05,NE,49,12.0,25.0,82,0.00,,,0.00,weatherlink.com 1.10,2013-03-09 08:11:00,
2013-03-09 03:26:00,36.6,32.0,30.05,NNE,22,10.0,27.0,83,0.00,,,0.00,weatherlink.com 1.10,2013-03-09 08:26:00,
2013-03-09 03:41:00,36.5,32.0,30.05,ENE,66,22.0,25.0,83,0.00,,,0.00,weatherlink.com 1.10,2013-03-09 08:41:00,
2013-03-09 03:56:00,36.5,32.0,30.06,ENE,58,7.0,26.0,83,0.00,,,0.00,weatherlink.com 1.10,2013-03-09 08:56:00,
2013-03-09 04:11:00,36.5,32.0,30.07,ENE,68,16.0,23.0,83,0.00,,,0.00,weatherlink.com 1.10,2013-03-09 09:11:00,
2013-03-09 04:26:00,36.5,32.0,30.07,ENE,59,15.0,29.0,82,0.00,,,0.00,weatherlink.com 1.10,2013-03-09 09:26:00,
2013-03-09 04:41:00,36.4,32.0,30.08,North,4,18.0,24.0,83,0.00,,,0.00,weatherlink.com 1.10,2013-03-09 09:41:00,
2013-03-09 04:56:00,36.3,32.0,30.09,North,355,9.0,23.0,83,0.00,,,0.00,weatherlink.com 1.10,2013-03-09 09:56:00,
2013-03-09 05:11:00,36.3,32.0,30.09,NE,43,11.0,26.0,83,0.00,,,0.00,weatherlink.com 1.10,2013-03-09 10:11:00,
2013-03-09 05:26:00,36.1,31.0,30.09,ENE,65,16.0,29.0,82,0.00,,,0.00,weatherlink.com 1.10,2013-03-09 10:26:00,
2013-03-09 05:41:00,36.0,32.0,30.10,NE,48,13.0,21.0,84,0.00,,,0.00,weatherlink.com 1.10,2013-03-09 10:41:00,
2013-03-09 05:56:00,36.0,31.0,30.11,NNE,26,15.0,24.0,83,0.00,,,0.00,weatherlink.com 1.10,2013-03-09 10:56:00,
2013-03-09 06:11:00,35.9,31.0,30.11,NE,50,16.0,26.0,83,0.00,,,0.00,weatherlink.com 1.10,2013-03-09 11:11:00,
2013-03-09 06:26:00,35.9,32.0,30.11,ENE,66,19.0,25.0,84,0.00,,,0.00,weatherlink.com 1.10,2013-03-09 11:26:00,
2013-03-09 06:41:00,36.0,31.0,30.12,NNE,31,9.0,26.0,83,0.00,,,0.00,weatherlink.com 1.10,2013-03-09 11:41:00,
2013-03-09 06:56:00,36.1,32.0,30.13,ENE,62,15.0,25.0,84,0.00,,,0.00,weatherlink.com 1.10,2013-03-09 11:56:00,
2013-03-09 07:11:00,36.0,32.0,30.14,ENE,63,14.0,28.0,84,0.00,,,0.00,weatherlink.com 1.10,2013-03-09 12:11:00,
2013-03-09 07:26:00,36.2,32.0,30.15,NNW,346,13.0,26.0,84,0.00,,,0.00,weatherlink.com 1.10,2013-03-09 12:26:00,
2013-03-09 07:43:00,36.3,32.0,30.15,NE,41,12.0,24.0,83,0.00,,,0.00,weatherlink.com 1.10,2013-03-09 12:43:00,
2013-03-09 07:57:00,36.1,31.0,30.16,ENE,75,15.0,28.0,83,0.00,,,0.00,weatherlink.com 1.10,2013-03-09 12:57:00,
2013-03-09 08:12:00,36.3,32.0,30.16,ENE,58,11.0,20.0,83,0.00,,,0.00,weatherlink.com 1.10,2013-03-09 13:12:00,
2013-03-09 08:27:00,36.4,32.0,30.17,NE,53,8.0,20.0,83,0.00,,,0.00,weatherlink.com 1.10,2013-03-09 13:27:00,
2013-03-09 08:42:00,36.5,32.0,30.17,NE,47,18.0,25.0,83,0.00,,,0.00,weatherlink.com 1.10,2013-03-09 13:42:00,
2013-03-09 08:57:00,36.7,32.0,30.18,ENE,68,15.0,21.0,83,0.00,,,0.00,weatherlink.com 1.10,2013-03-09 13:57:00,
2013-03-09 09:12:00,36.7,32.0,30.17,ENE,75,16.0,24.0,83,0.00,,,0.00,weatherlink.com 1.10,2013-03-09 14:12:00,
2013-03-09 09:27:00,37.2,32.0,30.18,ENE,59,15.0,33.0,82,0.00,,,0.00,weatherlink.com 1.10,2013-03-09 14:27:00,
2013-03-09 09:42:00,37.2,32.0,30.18,NE,53,15.0,25.0,81,0.00,,,0.00,weatherlink.com 1.10,2013-03-09 14:42:00,
2013-03-09 09:57:00,37.3,32.0,30.18,East,91,11.0,23.0,81,0.00,,,0.00,weatherlink.com 1.10,2013-03-09 14:57:00,
2013-03-09 10:12:00,37.6,33.0,30.18,NE,48,7.0,22.0,82,0.00,,,0.00,weatherlink.com 1.10,2013-03-09 15:12:00,
2013-03-09 10:27:00,37.6,33.0,30.18,NNE,32,10.0,21.0,82,0.00,,,0.00,weatherlink.com 1.10,2013-03-09 15:27:00,
2013-03-09 10:42:00,37.8,32.0,30.19,NE,41,10.0,27.0,81,0.00,,,0.00,weatherlink.com 1.10,2013-03-09 15:42:00,
2013-03-09 10:57:00,37.5,32.0,30.19,NE,36,18.0,27.0,80,0.00,,,0.00,weatherlink.com 1.10,2013-03-09 15:57:00,
2013-03-09 11:12:00,37.7,32.0,30.19,SE,125,13.0,24.0,81,0.00,,,0.00,weatherlink.com 1.10,2013-03-09 16:12:00,
2013-03-09 11:27:00,37.9,33.0,30.20,ENE,71,6.0,23.0,82,0.00,,,0.00,weatherlink.com 1.10,2013-03-09 16:27:00,
2013-03-09 11:42:00,37.8,33.0,30.20,NNE,25,14.0,22.0,82,0.00,,,0.00,weatherlink.com 1.10,2013-03-09 16:42:00,
2013-03-09 11:57:00,37.6,32.0,30.21,NE,44,9.0,29.0,81,0.00,,,0.00,weatherlink.com 1.10,2013-03-09 16:57:00,
2013-03-09 12:12:00,37.4,33.0,30.20,NE,56,13.0,23.0,83,0.00,,,0.00,weatherlink.com 1.10,2013-03-09 17:12:00,
2013-03-09 12:27:00,37.7,33.0,30.20,NE,54,4.0,23.0,83,0.00,,,0.00,weatherlink.com 1.10,2013-03-09 17:27:00,
2013-03-09 12:42:00,37.9,33.0,30.20,NE,54,12.0,22.0,83,0.00,,,0.00,weatherlink.com 1.10,2013-03-09 17:42:00,
2013-03-09 12:57:00,37.8,33.0,30.20,NNE,12,8.0,18.0,83,0.00,,,0.00,weatherlink.com 1.10,2013-03-09 17:57:00,
2013-03-09 13:12:00,37.4,33.0,30.21,NNE,29,17.0,24.0,84,0.00,,,0.00,weatherlink.com 1.10,2013-03-09 18:12:00,
2013-03-09 13:27:00,37.5,33.0,30.21,ENE,58,13.0,21.0,83,0.00,,,0.00,weatherlink.com 1.10,2013-03-09 18:27:00,
2013-03-09 13:42:00,37.1,32.0,30.22,NNE,27,8.0,24.0,83,0.00,,,0.00,weatherlink.com 1.10,2013-03-09 18:42:00,
2013-03-09 13:57:00,37.3,33.0,30.22,North,4,4.0,20.0,84,0.00,,,0.00,weatherlink.com 1.10,2013-03-09 18:57:00,
2013-03-09 14:12:00,37.3,33.0,30.22,ENE,60,15.0,19.0,84,0.00,,,0.00,weatherlink.com 1.10,2013-03-09 19:12:00,
2013-03-09 14:27:00,37.3,33.0,30.22,NNE,15,16.0,25.0,83,0.00,,,0.00,weatherlink.com 1.10,2013-03-09 19:27:00,
2013-03-09 14:42:00,37.1,32.0,30.22,ENE,63,7.0,25.0,83,0.00,,,0.00,weatherlink.com 1.10,2013-03-09 19:42:00,
2013-03-09 14:57:00,37.2,33.0,30.22,NE,55,11.0,23.0,83,0.00,,,0.00,weatherlink.com 1.10,2013-03-09 19:57:00,
2013-03-09 15:12:00,37.1,32.0,30.23,ENE,68,4.0,21.0,82,0.00,,,0.00,weatherlink.com 1.10,2013-03-09 20:12:00,
2013-03-09 15:27:00,37.1,32.0,30.23,NNE,21,8.0,19.0,83,0.00,,,0.00,weatherlink.com 1.10,2013-03-09 20:27:00,
2013-03-09 15:42:00,36.9,32.0,30.23,NE,50,18.0,19.0,82,0.00,,,0.00,weatherlink.com 1.10,2013-03-09 20:42:00,
2013-03-09 15:57:00,36.7,32.0,30.24,NE,56,19.0,26.0,83,0.00,,,0.00,weatherlink.com 1.10,2013-03-09 20:57:00,
2013-03-09 16:12:00,36.6,32.0,30.24,NE,56,13.0,20.0,84,0.00,,,0.00,weatherlink.com 1.10,2013-03-09 21:12:00,
2013-03-09 16:27:00,36.5,32.0,30.24,NE,56,12.0,19.0,85,0.00,,,0.00,weatherlink.com 1.10,2013-03-09 21:27:00,
2013-03-09 16:42:00,36.4,32.0,30.25,NE,38,11.0,20.0,84,0.00,,,0.00,weatherlink.com 1.10,2013-03-09 21:42:00,
2013-03-09 16:57:00,36.3,32.0,30.25,ENE,66,4.0,17.0,85,0.00,,,0.00,weatherlink.com 1.10,2013-03-09 21:57:00,
2013-03-09 17:12:00,36.3,32.0,30.25,North,11,8.0,19.0,85,0.00,,,0.00,weatherlink.com 1.10,2013-03-09 22:12:00,
2013-03-09 17:27:00,36.3,32.0,30.26,ENE,69,6.0,15.0,85,0.00,,,0.00,weatherlink.com 1.10,2013-03-09 22:27:00,
2013-03-09 17:42:00,36.1,32.0,30.27,NNW,345,5.0,18.0,85,0.00,,,0.00,weatherlink.com 1.10,2013-03-09 22:42:00,
2013-03-09 17:57:00,36.1,32.0,30.27,NE,36,6.0,18.0,85,0.00,,,0.00,weatherlink.com 1.10,2013-03-09 22:57:00,
2013-03-09 18:12:00,36.1,32.0,30.28,ENE,68,7.0,17.0,85,0.00,,,0.00,weatherlink.com 1.10,2013-03-09 23:12:00,
2013-03-09 18:27:00,36.0,32.0,30.29,NNE,33,10.0,15.0,85,0.00,,,0.00,weatherlink.com 1.10,2013-03-09 23:27:00,
2013-03-09 18:42:00,36.0,32.0,30.29,ENE,64,6.0,18.0,85,0.00,,,0.00,weatherlink.com 1.10,2013-03-09 23:42:00,
2013-03-09 18:57:00,35.7,32.0,30.29,ENE,65,6.0,17.0,85,0.00,,,0.00,weatherlink.com 1.10,2013-03-09 23:57:00,
2013-03-09 19:13:00,35.6,32.0,30.30,East,96,12.0,18.0,85,0.00,,,0.00,weatherlink.com 1.10,2013-03-10 00:13:00,
2013-03-09 19:28:00,35.8,32.0,30.30,NE,48,12.0,16.0,86,0.00,,,0.00,weatherlink.com 1.10,2013-03-10 00:28:00,
2013-03-09 19:43:00,35.9,32.0,30.30,NE,52,9.0,17.0,86,0.00,,,0.00,weatherlink.com 1.10,2013-03-10 00:43:00,
2013-03-09 19:58:00,36.0,32.0,30.30,ENE,75,15.0,15.0,86,0.00,,,0.00,weatherlink.com 1.10,2013-03-10 00:58:00,
2013-03-09 20:13:00,36.0,33.0,30.30,ENE,77,5.0,13.0,87,0.00,,,0.00,weatherlink.com 1.10,2013-03-10 01:13:00,
2013-03-09 20:28:00,36.3,33.0,30.30,NNE,30,6.0,16.0,87,0.00,,,0.00,weatherlink.com 1.10,2013-03-10 01:28:00,
2013-03-09 20:43:00,36.3,33.0,30.29,NE,56,6.0,18.0,86,0.00,,,0.00,weatherlink.com 1.10,2013-03-10 01:43:00,
2013-03-09 20:58:00,36.5,33.0,30.30,ENE,64,10.0,19.0,86,0.00,,,0.00,weatherlink.com 1.10,2013-03-10 01:58:00,
2013-03-09 21:13:00,36.8,33.0,30.30,ENE,68,5.0,19.0,85,0.00,,,0.00,weatherlink.com 1.10,2013-03-10 02:13:00,
2013-03-09 21:28:00,36.7,33.0,30.30,ENE,76,6.0,11.0,86,0.00,,,0.00,weatherlink.com 1.10,2013-03-10 02:28:00,
2013-03-09 21:43:00,36.9,33.0,30.30,ENE,77,10.0,19.0,84,0.00,,,0.00,weatherlink.com 1.10,2013-03-10 02:43:00,
2013-03-09 21:58:00,36.9,33.0,30.30,NE,44,5.0,17.0,85,0.00,,,0.00,weatherlink.com 1.10,2013-03-10 02:58:00,
2013-03-09 22:13:00,36.9,33.0,30.30,East,83,5.0,18.0,84,0.00,,,0.00,weatherlink.com 1.10,2013-03-10 03:13:00,
2013-03-09 22:28:00,37.0,33.0,30.30,NE,53,15.0,17.0,85,0.00,,,0.00,weatherlink.com 1.10,2013-03-10 03:28:00,
2013-03-09 22:43:00,37.3,33.0,30.30,ENE,64,12.0,18.0,85,0.00,,,0.00,weatherlink.com 1.10,2013-03-10 03:43:00,
2013-03-09 22:58:00,37.2,33.0,30.31,ENE,64,6.0,16.0,84,0.00,,,0.00,weatherlink.com 1.10,2013-03-10 03:58:00,
2013-03-09 23:13:00,37.0,33.0,30.31,ENE,77,10.0,13.0,84,0.00,,,0.00,weatherlink.com 1.10,2013-03-10 04:13:00,
2013-03-09 23:28:00,37.0,33.0,30.31,East,87,6.0,18.0,84,0.00,,,0.00,weatherlink.com 1.10,2013-03-10 04:28:00,
2013-03-09 23:43:00,37.3,33.0,30.31,ENE,62,9.0,18.0,84,0.00,,,0.00,weatherlink.com 1.10,2013-03-10 04:43:00,
2013-03-09 23:58:00,37.4,33.0,30.30,ESE,109,5.0,17.0,83,0.00,,,0.00,weatherlink.com 1.10,2013-03-10 04:58:00,